This is the latest recevied weather packets stored in our database for station/object IZ7EXI-13. If no packets are shown the sender has not sent any weather packets the latest 10 day(s).
| Time | Temp. | Humidity | Pressure | Rain* | Wind** | Luminosity | Snow |
|---|---|---|---|---|---|---|---|
| 1788232913 | 26.11° C | 78% | 1018.1 hPa | - | - | - | - |
| 1788232013 | 25.56° C | 78% | 1018 hPa | - | - | - | - |
| 1788231113 | 25.56° C | 78% | 1018.1 hPa | - | - | - | - |
| 1788230213 | 25.56° C | 78% | 1018 hPa | - | - | - | - |
| 1788229312 | 25.56° C | 78% | 1018 hPa | - | - | - | - |
| 1788228412 | 26.11° C | 76% | 1018 hPa | - | - | - | - |
| 1788227512 | 26.11° C | 74% | 1017.9 hPa | - | - | - | - |
| 1788226612 | 26.67° C | 72% | 1017.8 hPa | - | - | - | - |
| 1788225712 | 26.67° C | 71% | 1017.8 hPa | - | - | - | - |
| 1788224811 | 26.67° C | 71% | 1017.9 hPa | - | - | - | - |
| 1788223911 | 27.22° C | 71% | 1017.8 hPa | - | - | - | - |
| 1788223011 | 27.22° C | 72% | 1017.8 hPa | - | - | - | - |
| 1788222125 | 27.22° C | 73% | 1017.9 hPa | - | - | - | - |
| 1788221211 | 27.22° C | 74% | 1017.8 hPa | - | - | - | - |
| 1788220310 | 27.22° C | 75% | 1017.9 hPa | - | - | - | - |
| 1788219410 | 27.22° C | 74% | 1017.8 hPa | - | - | - | - |
| 1788218510 | 27.78° C | 75% | 1017.9 hPa | - | - | - | - |
| 1788217610 | 27.78° C | 77% | 1017.8 hPa | - | - | - | - |
| 1788216709 | 27.22° C | 80% | 1017.8 hPa | - | - | - | - |
| 1788215809 | 27.22° C | 82% | 1017.8 hPa | - | - | - | - |
| 1788214909 | 27.78° C | 82% | 1017.7 hPa | - | - | - | - |
| 1788214009 | 27.78° C | 82% | 1017.7 hPa | - | - | - | - |
| 1788213109 | 27.78° C | 82% | 1017.6 hPa | - | - | - | - |
| 1788212208 | 27.78° C | 82% | 1017.5 hPa | - | - | - | - |
| 1788211308 | 27.78° C | 82% | 1017.4 hPa | - | - | - | - |
* Rain since midnight (hover to see other rain measurements)
** Current wind speed in m/s (hover to see current wind gust speed)